Location: Saluda
(35.2377°N, 82.3468°W)
Time: 16:16:31
(UTC+00:00)

Transit 2A - Pass Details

Date: 11 October 2022
Orbit: 598 x 959 km, 66.7° (Epoch: 06 December)

Event Time Altitude Azimuth Distance (km) Brightness Sun altitude
Rises 02:40:47 0° 226° (SW) 2,926 - -44.5°
Reaches altitude 10° 02:43:15 10° 235° (SW) 1,985 - -45.0°
Maximum altitude 02:47:18 35° 302° (WNW) 980 - -45.7°
Drops below altitude 10° 02:51:17 10° 9° (N) 1,939 - -46.4°
Sets 02:53:40 0° 18° (NNE) 2,849 - -46.8°
